This is the latest recevied weather packets stored in our database for station/object CE3MXM-12. If no packets are shown the sender has not sent any weather packets the latest 10 day(s).
| Time | Temp. | Humidity | Pressure | Rain* | Wind** | Luminosity | Snow |
|---|---|---|---|---|---|---|---|
| 1777830851 | 23.33° C | 23% | 1016.4 hPa | - | - | - | - |
| 1777830550 | 23.33° C | 25% | 1016.5 hPa | - | - | - | - |
| 1777830250 | 23.33° C | 26% | 1016.3 hPa | - | - | - | - |
| 1777829950 | 23.89° C | 27% | 1016.5 hPa | - | - | - | - |
| 1777829650 | 24.44° C | 26% | 1016.6 hPa | - | - | - | - |
| 1777829350 | 25° C | 25% | 1016.8 hPa | - | - | - | - |
| 1777829050 | 25° C | 25% | 1016.7 hPa | - | - | - | - |
| 1777828750 | 23.89° C | 26% | 1016.6 hPa | - | - | - | - |
| 1777828450 | 23.33° C | 25% | 1016.6 hPa | - | - | - | - |
| 1777828150 | 23.33° C | 27% | 1016.7 hPa | - | - | - | - |
| 1777827850 | 22.78° C | 26% | 1016.6 hPa | - | - | - | - |
| 1777827549 | 22.78° C | 26% | 1016.7 hPa | - | - | - | - |
| 1777827249 | 22.78° C | 26% | 1016.5 hPa | - | - | - | - |
| 1777826949 | 22.78° C | 27% | 1016.7 hPa | - | - | - | - |
| 1777826649 | 22.22° C | 26% | 1016.9 hPa | - | - | - | - |
| 1777826349 | 22.78° C | 26% | 1016.9 hPa | - | - | - | - |
| 1777826049 | 23.33° C | 26% | 1016.8 hPa | - | - | - | - |
| 1777825749 | 23.33° C | 27% | 1016.9 hPa | - | - | - | - |
| 1777825449 | 23.33° C | 27% | 1017 hPa | - | - | - | - |
| 1777825149 | 23.33° C | 28% | 1017 hPa | - | - | - | - |
| 1777824849 | 22.22° C | 29% | 1017.2 hPa | - | - | - | - |
| 1777824549 | 22.78° C | 28% | 1017 hPa | - | - | - | - |
| 1777824248 | 21.67° C | 30% | 1017.1 hPa | - | - | - | - |
| 1777823948 | 21.67° C | 30% | 1017.1 hPa | - | - | - | - |
| 1777823648 | 21.11° C | 30% | 1017.4 hPa | - | - | - | - |
* Rain since midnight (hover to see other rain measurements)
** Current wind speed in m/s (hover to see current wind gust speed)